Weather reports worldwide

Advertisment
Nikkaluokta, Sweden (2036): temperature & dewpoint: 06.12.2019 16:00:00 - 12.12.2019 16:00:00 (CET)Nikkaluokta, Sweden (2036): wind speed & gusts: 06.12.2019 16:00:00 - 12.12.2019 16:00:00 (CET)Nikkaluokta, Sweden (2036): wind direction: 06.12.2019 16:00:00 - 12.12.2019 16:00:00 (CET)Nikkaluokta, Sweden (2036): reduced air pressure: 06.12.2019 16:00:00 - 12.12.2019 16:00:00 (CET)Nikkaluokta, Sweden (2036): visibility: 06.12.2019 16:00:00 - 12.12.2019 16:00:00 (CET)Nikkaluokta, Sweden (2036): precipitation: 06.12.2019 16:00:00 - 12.12.2019 16:00:00 (CET)
Date & Time tt [°C] td [°C] ff [km/h] ff [kn] fx [km/h] fx [kn] dd ppp [hPa] vv [km] rr [mm]
12.12.2019 16:00:00 -1,7 -5,4 11 6 28 15 SSW 990,3 50 0,0
12.12.2019 15:00:00 -1,8 -6,0 13 7 34 19 SSW 990,5 50 0,0
12.12.2019 14:00:00 -1,8 -5,6 11 6 29 16 SSW 990,7 21 0,0
12.12.2019 13:00:00 -2,0 -5,8 11 6 25 14 SW 990,8 50 0,0
12.12.2019 12:00:00 -2,3 -6,0 8 5 20 11 WSW 991,1 48 0,0
12.12.2019 11:00:00 -4,5 -7,1 9 5 32 17 NNE 991,5 50 0,0
12.12.2019 10:00:00 -6,0 -8,1 10 6 23 12 W 991,4 50 0,0
12.12.2019 09:00:00 -6,2 -8,0 6 3 14 8 S 991,6 50 0,0
12.12.2019 08:00:00 -5,0 -7,1 11 6 17 9 WNW 991,2 50 0,0
12.12.2019 07:00:00 -4,5 -6,8 5 3 19 11 S 991,0 46 0,0
12.12.2019 06:00:00 -6,1 -7,3 5 3 22 12 NNW 991,2 50 0,0
12.12.2019 05:00:00 -7,3 -9,2 11 6 29 16 SE 991,5 50 0,0
12.12.2019 04:00:00 -6,5 -8,3 11 6 22 12 SE 991,0 50 0,0
12.12.2019 03:00:00 -9,1 -10,6 11 6 24 13 E 991,2 50 0,0
12.12.2019 02:00:00 -6,5 -8,8 9 5 18 10 SE 990,3 50 0,0
12.12.2019 01:00:00 -5,0 -8,9 8 4 22 12 E 989,9 50 0,0
12.12.2019 00:00:00 -3,1 -7,1 11 6 31 17 SSE 989,1 50 0,0
11.12.2019 23:00:00 -0,6 -6,2 18 10 29 15 SSW 988,0 33 0,0
11.12.2019 22:00:00 -5,6 -8,2 13 7 27 15 E 988,2 50 0,0
11.12.2019 21:00:00 -3,1 -6,4 6 4 17 9 NNE 986,8 50 0,0
11.12.2019 20:00:00 -8,3 -9,5 4 2 20 11 ENE 986,7 50 0,0
11.12.2019 19:00:00 -6,6 -7,7 5 3 31 17 S 985,4 50 -
11.12.2019 18:00:00 -7,5 -8,6 4 2 17 9 SSW 984,9 50 0,0
11.12.2019 17:00:00 -6,3 -7,2 2 1 7 4 WSW 984,2 48 0,0
11.12.2019 16:00:00 -5,5 -6,5 6 3 9 5 N 983,7 41 0,1
11.12.2019 15:00:00 -4,1 -5,2 6 3 16 8 W 983,2 2,0 0,3
11.12.2019 14:00:00 -3,7 -5,4 8 4 26 14 WSW 983,0 2,5 0,1
11.12.2019 13:00:00 -2,8 -5,9 15 8 38 21 SSW 982,8 3,3 0,2
11.12.2019 12:00:00 -3,0 -5,5 22 12 44 24 S 983,2 0,8 0,2
11.12.2019 11:00:00 -3,3 -4,4 17 9 51 28 SE 984,1 1,4 0,4
11.12.2019 10:00:00 -3,8 -5,2 9 5 40 22 SSE 985,3 2,2 0,3
11.12.2019 09:00:00 -6,3 -7,1 4 2 10 5 NW 986,7 0,7 1,0
11.12.2019 08:00:00 -9,8 -11,1 6 3 13 7 NNW 988,3 0,7 0,6
11.12.2019 07:00:00 -11,8 -13,2 8 4 11 6 WSW 990,6 0,5 0,7
11.12.2019 06:00:00 -12,5 -14,1 8 4 13 7 W 992,5 0,5 0,4
11.12.2019 05:00:00 -12,5 -14,1 6 4 10 6 WSW 994,3 0,5 0,4
11.12.2019 04:00:00 -15,5 -17,4 0 0 5 3 N 996,3 0,8 0,5
11.12.2019 03:00:00 -16,8 -18,9 4 2 10 5 S 998,5 0,4 0,4
11.12.2019 02:00:00 -18,6 -20,8 3 1 14 8 SW 1000,5 10 0,0
11.12.2019 01:00:00 -20,6 -23,0 4 2 13 7 SSW 1002,2 50 0,0
11.12.2019 00:00:00 -23,5 -26,0 3 2 11 6 WSW 1004,1 50 0,0
10.12.2019 23:00:00 -25,2 -28,1 5 3 8 5 SSW 1005,0 50 0,0
10.12.2019 22:00:00 -23,7 -26,4 2 1 12 6 W 1006,0 50 0,0
10.12.2019 21:00:00 -25,4 -28,2 3 1 9 5 WNW 1006,9 50 0,0
10.12.2019 20:00:00 -25,5 -28,3 3 2 11 6 SW 1007,5 50 0,0
10.12.2019 19:00:00 -25,0 -27,7 3 2 18 10 SW 1007,4 50 0,0
10.12.2019 18:00:00 -24,4 -27,1 6 3 18 10 S 1007,7 50 0,0
10.12.2019 17:00:00 -23,5 -26,4 6 3 18 10 WNW 1008,0 50 0,0
10.12.2019 16:00:00 -24,0 -26,5 4 2 15 8 W 1008,2 27 0,0
10.12.2019 15:00:00 -23,8 -26,4 6 3 13 7 WSW 1008,1 50 0,0
10.12.2019 14:00:00 -25,0 -27,9 4 2 10 5 SW 1007,8 50 0,0
10.12.2019 13:00:00 -22,9 -25,3 8 4 11 6 WNW 1007,2 50 0,0
10.12.2019 12:00:00 -24,3 -27,2 5 3 10 5 NW 1007,2 50 0,0
10.12.2019 11:00:00 -21,9 -24,0 5 3 13 7 W 1006,5 50 0,0
10.12.2019 10:00:00 -21,2 -23,5 10 5 13 7 NW 1005,8 45 0,0
10.12.2019 09:00:00 -21,0 -23,8 8 5 17 9 WSW 1004,7 50 0,0
10.12.2019 08:00:00 -16,0 -18,2 12 7 16 9 SW 1003,6 50 0,0
10.12.2019 07:00:00 -22,1 -24,7 6 3 11 6 WSW 1003,4 50 0,0
10.12.2019 06:00:00 -19,9 -22,3 7 4 12 7 SSW 1002,0 50 0,0
10.12.2019 05:00:00 -16,9 -19,0 7 4 11 6 SSE 1000,7 50 0,0
10.12.2019 04:00:00 -12,5 -15,2 4 2 23 13 SW 999,3 50 0,0
10.12.2019 03:00:00 -11,4 -15,1 15 8 22 12 W 998,0 50 0,0
10.12.2019 02:00:00 -12,7 -15,9 14 8 25 14 WSW 997,1 50 0,0
10.12.2019 01:00:00 -8,1 -12,6 16 9 34 18 NNW 995,4 13 0,0
10.12.2019 00:00:00 -9,2 -12,6 12 6 25 14 SW 994,5 50 0,0
09.12.2019 23:00:00 -6,7 -10,2 13 7 27 15 W 993,0 50 0,0
09.12.2019 22:00:00 -8,4 -10,3 9 5 18 10 W 992,1 50 0,0
09.12.2019 21:00:00 -18,6 -20,9 8 4 19 10 WSW 992,0 50 0,0
09.12.2019 20:00:00 -24,3 -27,0 3 2 14 7 NW 991,6 50 0,0
09.12.2019 19:00:00 -22,3 -24,7 9 5 16 9 W 990,2 50 0,0
09.12.2019 18:00:00 -18,6 -20,5 11 6 16 9 WNW 988,8 31 0,0
09.12.2019 17:00:00 -19,9 -22,6 8 4 13 7 W 987,9 32 0,0
09.12.2019 16:00:00 -18,0 -20,3 7 4 12 6 NW 986,7 34 0,0
09.12.2019 15:00:00 -18,7 -21,3 4 2 6 3 W 985,7 36 -
09.12.2019 14:00:00 -16,6 -18,8 4 2 10 5 N 984,7 50 -
09.12.2019 13:00:00 -12,4 -13,7 9 5 12 7 NW 983,4 20 -
09.12.2019 12:00:00 -9,8 -11,3 6 3 11 6 W 982,4 7 -
09.12.2019 11:00:00 -9,6 -11,1 5 3 13 7 W 982,1 9 0,0
09.12.2019 10:00:00 -9,6 -11,0 4 2 6 3 NW 981,6 6 0,0
09.12.2019 09:00:00 -8,5 -9,8 3 2 7 4 N 980,9 6 0,2
09.12.2019 08:00:00 -8,1 -9,4 0 0 8 4 N 980,2 2,8 0,4
09.12.2019 07:00:00 -7,9 -9,1 4 2 8 4 S 979,9 1,3 0,4
09.12.2019 06:00:00 -7,8 -9,2 4 2 6 4 SSE 979,5 1,7 0,3
09.12.2019 05:00:00 -7,7 -8,9 5 3 7 4 S 979,3 1,1 0,4
09.12.2019 04:00:00 -7,8 -9,0 0 0 4 2 N 979,2 1,0 0,4
09.12.2019 03:00:00 -7,8 -9,0 3 2 4 2 SSW 979,1 1,0 0,1
09.12.2019 02:00:00 -7,5 -9,1 0 0 8 4 N 979,1 3,3 0,2
09.12.2019 01:00:00 -7,4 -8,9 6 3 19 10 E 979,2 1,1 0,2
09.12.2019 00:00:00 -7,1 -8,9 9 5 17 9 ENE 979,3 1,3 0,2
08.12.2019 23:00:00 -7,6 -9,0 4 2 5 3 SW 979,5 5 0,0
08.12.2019 22:00:00 -7,7 -8,9 0 0 9 5 N 979,9 8 0,1
08.12.2019 21:00:00 -7,5 -8,7 3 1 6 4 NNW 980,1 2,0 0,1
08.12.2019 20:00:00 -7,6 -9,0 4 2 7 4 SW 980,2 7 0,0
08.12.2019 19:00:00 -8,1 -9,3 4 2 8 4 S 980,3 38 0,0
08.12.2019 18:00:00 -8,6 -9,9 6 3 8 5 SSW 980,6 30 0,0
08.12.2019 17:00:00 -9,3 -10,6 4 2 9 5 W 980,7 7 0,0
08.12.2019 16:00:00 -10,1 -11,7 2 1 10 6 N 981,1 5 0,1
08.12.2019 15:00:00 -11,1 -12,7 9 5 15 8 NW 981,4 6 0,0
08.12.2019 14:00:00 -11,6 -13,3 5 3 9 5 WNW 981,4 50 0,0
08.12.2019 13:00:00 -11,5 -13,1 4 2 6 4 W 981,6 17 0,1
08.12.2019 12:00:00 -12,5 -14,2 4 2 - - SSE 981,7 34 0,0
08.12.2019 11:00:00 -13,7 -15,5 4 2 8 4 W 981,6 50 0,0
08.12.2019 10:00:00 -12,8 -14,4 4 2 13 7 NNW 981,6 50 0,0
08.12.2019 09:00:00 -13,9 -15,7 5 3 12 7 SSW 981,9 50 0,0
08.12.2019 08:00:00 -17,0 -19,1 7 4 9 5 SW 982,2 50 0,0
08.12.2019 07:00:00 -15,4 -17,5 3 2 16 9 NW 981,9 43 0,0
08.12.2019 06:00:00 -13,3 -15,3 6 4 12 7 WNW 981,4 50 0,0
08.12.2019 05:00:00 -12,0 -13,9 4 2 9 5 WNW 981,6 50 0,0
08.12.2019 04:00:00 -11,9 -13,7 4 2 12 7 W 981,4 50 0,0
08.12.2019 03:00:00 -12,1 -14,0 8 4 14 8 WSW 981,3 50 0,0
08.12.2019 02:00:00 -11,1 -12,8 4 2 8 4 WSW 981,0 50 0,0
08.12.2019 01:00:00 -11,3 -12,9 3 2 10 6 SE 980,8 4,1 0,1
08.12.2019 00:00:00 -11,3 -12,9 4 2 9 5 ESE 980,5 3,0 0,0
07.12.2019 23:00:00 -11,6 -13,0 2 1 5 3 S 980,5 4,6 0,0
07.12.2019 22:00:00 -11,8 -13,2 2 1 5 3 WSW 980,4 6 0,0
07.12.2019 21:00:00 -12,3 -13,9 4 2 7 4 SW 980,2 3,6 0,0
07.12.2019 20:00:00 -11,8 -13,1 4 2 10 5 NE 979,9 3,8 0,0
07.12.2019 19:00:00 -11,7 -13,0 4 2 8 4 ENE 979,4 3,0 0,0
07.12.2019 18:00:00 -11,4 -12,6 3 2 10 5 ESE 979,1 7 0,0
07.12.2019 17:00:00 -12,8 -14,4 4 2 7 4 S 979,1 4,8 0,0
07.12.2019 16:00:00 -12,7 -14,4 0 0 8 4 N 978,9 4,7 0,2
07.12.2019 15:00:00 -13,9 -15,6 2 1 6 4 W 979,1 30 0,0
07.12.2019 14:00:00 -14,8 -17,0 4 2 7 4 SSW 979,1 50 0,0
07.12.2019 13:00:00 -12,7 -14,4 3 2 6 4 SSE 978,9 50 0,0
07.12.2019 12:00:00 -12,4 -14,1 0 0 8 4 N 979,0 50 0,0
07.12.2019 11:00:00 -11,9 -13,5 4 2 7 4 NW 979,0 50 0,0
07.12.2019 10:00:00 -11,5 -13,0 4 2 6 4 WNW 979,4 8 0,0
07.12.2019 09:00:00 -11,3 -13,0 3 2 8 4 W 979,5 4,1 0,1
07.12.2019 08:00:00 -11,0 -12,6 4 2 6 3 SW 979,2 8 0,1
07.12.2019 07:00:00 -10,9 -12,5 3 2 9 5 SSW 979,1 4,5 0,1
07.12.2019 06:00:00 -11,0 -12,5 5 3 9 5 NNW 978,8 30 0,1
07.12.2019 05:00:00 -10,5 -12,0 0 0 5 3 N 978,9 1,6 0,2
07.12.2019 04:00:00 -10,6 -11,7 4 2 6 3 SW 978,9 1,4 0,0
07.12.2019 03:00:00 -10,9 -12,5 3 2 7 4 WNW 979,0 26 0,0
07.12.2019 02:00:00 -11,2 -12,8 3 2 8 4 WSW 979,1 50 0,0
07.12.2019 01:00:00 -11,3 -12,9 3 1 7 4 NW 979,1 50 0,0
07.12.2019 00:00:00 -11,1 -12,6 5 3 9 5 WSW 979,0 50 0,0
06.12.2019 23:00:00 -11,4 -13,0 3 2 9 5 SW 978,9 50 0,0
06.12.2019 22:00:00 -12,0 -13,5 4 2 10 5 S 978,7 50 0,0
06.12.2019 21:00:00 -13,8 -15,4 5 3 8 4 ESE 978,8 50 0,0
06.12.2019 20:00:00 -13,8 -15,5 3 1 7 4 NNW 978,8 50 0,0
06.12.2019 19:00:00 -15,9 -17,8 4 2 6 3 W 978,9 50 0,0
06.12.2019 18:00:00 -16,2 -18,1 4 2 - - W 979,1 50 0,0
06.12.2019 17:00:00 -16,8 -18,6 0 0 7 4 N 978,8 50 0,0
06.12.2019 16:00:00 -16,9 -18,8 4 2 10 5 WNW 978,6 50 -

tt = temperature
td = dewpoint
ff = wind speed
fx = gusts
dd = wind direction
ppp = reduced air pressure
vv = visibility
rr = precipitation

Next stations